Location: Dos Palmas
(32.4468°N, 116.8732°W)
Time: 01:42:03
(UTC+00:00)

Meteor 1-24 Rocket - Pass Details

Date: 25 October 2021
Orbit: 790 x 927 km, 81.3° (Epoch: 07 December)

Event Time Altitude Azimuth Distance (km) Brightness Sun altitude
Rises 12:22:20 0° 164° (SSE) 3,271 7.0 -21.1°
Reaches altitude 10° 12:24:51 10° 155° (SSE) 2,351 6.3 -20.5°
Maximum altitude 12:29:36 35° 91° (E) 1,280 5.3 -19.5°
Drops below altitude 10° 12:34:27 10° 27° (NNE) 2,408 6.4 -18.5°
Sets 12:37:03 0° 19° (NNE) 3,363 7.0 -18.0°
